CAPE
0 0 0 0 0 43 69 64 11 15 248 0 6 0 0 0 6 0 0 49 48 40 26 131 130 90 268 206 296 461 430 469 508 727 674 699 105 769 327 99 752 1581 701 265
0 0 0 0 6 92 105 126 108 10 47 30 0 0 0 0 0 0 2 20 36 129 94 135 92 156 233 207 201 380 424 413 491 524 967 564 996 931 1087 947 1067 1335 715 551
0 0 0 0 4 97 195 35 6 0 0 44 78 37 0 0 0 0 0 8 54 39 58 90 155 227 235 239 229 336 424 399 516 887 807 707 605 528 768 1270 1208 853 981 696
0 0 0 0 0 0 37 100 72 29 122 82 216 41 6 0 0 0 0 0 0 15 30 40 62 106 229 246 231 328 430 371 645 877 802 469 428 415 111 829 900 874 1040 491
0 0 0 0 0 0 0 16 46 74 54 124 234 87 105 0 0 0 0 0 2 5 10 5 32 108 239 312 335 486 472 524 322 721 607 705 348 413 905 921 1263 938 934 518
0 0 0 0 0 0 0 0 0 0 0 0 65 12 100 36 0 0 0 0 0 0 6 0 10 30 91 397 506 608 505 401 322 606 632 484 464 537 566 749 895 1065 848 1173
0 0 0 0 0 0 0 0 0 0 1 20 0 1 7 120 3 0 0 0 0 0 0 0 1 5 7 292 525 485 505 383 610 556 299 257 506 610 390 423 343 1026 1044 892
0 1 0 0 0 0 0 0 0 0 0 0 0 0 46 50 108 131 7 0 0 0 0 0 2 1 2 238 377 778 522 343 508 551 287 482 509 438 395 340 102 751 1057 1014
0 0 0 0 0 0 0 0 7 11 13 8 0 6 16 81 0 116 48 0 0 0 0 0 28 40 27 205 319 642 610 383 362 534 603 666 635 290 252 642 1058 829 1086 1274
0 0 0 0 0 0 0 0 0 29 27 0 8 39 44 42 0 0 23 4 1 0 0 2 6 67 96 178 132 486 690 544 326 635 513 498 640 560 391 754 645 831 651 714
0 0 0 0 0 0 0 0 0 0 1 0 0 10 22 19 1 0 26 52 7 18 1 21 17 13 57 91 5 343 665 549 377 366 744 469 427 597 422 470 703 711 966 682
0 0 0 0 0 0 4 7 0 0 0 0 0 0 2 0 9 1 57 12 88 113 50 73 61 10 14 3 47 251 944 626 443 372 358 334 237 703 350 507 707 611 937 895
0 0 0 0 0 0 0 0 3 23 12 0 0 0 0 0 0 12 71 94 537 366 391 163 55 1 8 1 26 389 911 556 494 445 606 463 499 525 446 381 639 738 568 680
0 0 0 0 0 0 0 0 1 0 3 0 0 0 13 0 0 75 12 89 184 289 274 205 121 53 6 0 0 375 880 885 759 667 827 622 670 542 727 797 711 501 1150 1025
0 0 0 0 0 0 0 0 0 0 0 0 0 0 0 0 0 25 52 74 126 78 68 103 99 147 181 371 174 476 525 614 786 611 758 743 649 837 585 876 879 761 868 765
0 0 0 0 0 0 0 0 0 0 0 0 0 17 131 0 16 23 0 0 99 34 48 82 40 51 178 329 122 13 14 84 532 721 789 821 744 688 774 647 850 818 872 980
0 0 0 0 0 0 0 0 0 11 16 24 69 55 27 0 0 0 9 73 411 629 504 431 67 12 114 122 90 11 9 69 205 1043 888 941 831 729 746 749 687 606 652 808
0 0 0 0 0 0 0 1 11 9 1 31 104 74 117 11 4 0 15 320 400 472 374 284 218 355 0 102 63 66 13 83 181 1080 1032 1029 1022 744 801 895 935 927 1103 994
0 0 0 0 0 0 0 34 9 1 83 114 145 99 36 126 46 68 512 467 344 270 165 121 265 551 724 28 136 30 8 30 7 788 1144 1033 1167 907 775 431 620 807 906 757
0 0 0 0 0 0 46 5 0 0 35 139 128 95 63 33 11 0 384 369 261 211 169 202 311 684 570 801 606 562 387 217 276 839 819 845 884 771 793 759 801 500 317 85
0 0 0 0 0 1 33 18 3 4 29 94 140 129 59 21 0 1 143 346 235 106 200 211 485 695 619 605 437 152 6 13 61 89 506 496 491 498 321 299 326 85 28 4
0 0 0 15 24 16 7 22 2 7 5 0 126 182 112 0 148 358 306 225 207 134 191 290 418 597 742 637 387 214 97 15 6 43 73 178 135 102 33 15 6 0 0 0
0 0 0 0 15 0 0 0 5 0 0 0 99 389 179 191 219 163 134 210 121 110 111 279 389 507 515 590 323 233 57 46 43 1 29 61 0 0 0 0 0 0 0 1
4 4 0 0 8 1 0 0 0 7 1 16 204 239 374 211 71 213 271 144 80 53 122 184 214 370 404 383 585 406 239 124 113 42 64 54 6 2 1 0 1 0 0 0
0 12 0 0 27 62 0 0 52 143 389 177 140 68 53 214 403 512 198 65 4 9 29 106 103 117 102 133 161 144 91 26 8 1 1 0 0 0 0 0 0 0 0 0
9 9 11 49 2 1 5 34 78 470 527 339 218 12 0 0 53 99 302 124 71 28 23 54 30 21 37 86 74 7 6 9 3 2 1 0 0 0 0 0 0 0 0 0
CIN
0 0 0 0 0 -17 -34 -47 -81 -41 -53 0 -129 0 0 0 -95 -16 0 -48 -43 -43 -35 -27 -11 -39 -34 -36 -37 -25 -28 -27 -25 -21 -22 -27 -52 -27 -42 -59 -28 -12 -60 -131
0 0 0 0 -6 -16 -43 -68 -63 -25 -79 -77 -19 0 0 0 0 0 -48 -76 -35 -48 -30 -23 -26 -32 -53 -47 -57 -42 -35 -27 -19 -31 -19 -21 -17 -34 -30 -27 -18 -15 -52 -71
0 0 0 0 -4 -10 -18 -61 -67 0 0 -64 -52 -73 0 0 0 0 0 -18 -79 -44 -40 -50 -28 -27 -44 -63 -55 -60 -60 -35 -20 -19 -21 -27 -33 -42 -26 -16 -9 -29 -37 -81
0 0 0 0 0 0 -12 -8 -57 -74 -25 -21 -57 -28 -104 0 -23 -46 0 0 0 -133 -79 -66 -67 -41 -29 -57 -64 -58 -64 -41 -23 -17 -16 -23 -18 -25 -63 -25 -18 -18 -24 -85
0 0 0 0 0 0 0 -12 -5 -4 -19 -14 -59 -16 -46 -10 0 0 0 0 -272 -162 -103 -50 -82 -53 -24 -64 -79 -71 -61 -43 -36 -18 -29 -21 -22 -30 -31 -19 -7 -14 -13 -93
0 0 0 0 0 0 0 0 0 0 0 0 -44 -34 -36 -134 0 0 0 0 0 0 -111 -20 -141 -92 -54 -33 -81 -71 -69 -65 -60 -27 -35 -39 -29 -21 -18 -15 -19 -20 -23 -18
0 0 0 0 0 0 0 0 0 0 -4 -37 0 -19 -56 -88 -36 0 0 0 0 0 -5 -20 -31 -98 -59 -26 -71 -90 -90 -71 -47 -52 -58 -47 -37 -32 -28 -39 -32 -27 -21 -30
0 0 0 0 0 0 0 0 0 0 0 0 0 0 -11 -74 -66 -64 -70 0 0 -11 0 0 -79 -64 -49 -31 -54 -57 -95 -83 -59 -55 -69 -37 -36 -50 -49 -55 -66 -25 -14 -17
0 0 0 0 0 0 0 -1 -11 -33 -57 -47 0 -47 -37 -144 -11 -63 -86 0 0 0 0 0 -113 -76 -50 -20 -31 -49 -87 -81 -83 -60 -53 -33 -46 -70 -48 -40 -33 -20 -23 -25
0 0 0 0 0 0 0 0 0 -23 -16 -5 -20 -15 -46 -118 0 0 -113 -134 -160 0 0 -20 -89 -118 -135 -59 -45 -53 -45 -82 -95 -53 -54 -53 -49 -49 -49 -46 -24 -21 -29 -23
0 0 0 0 0 0 0 0 0 0 -75 0 0 -22 -148 -164 -34 0 -137 -59 -45 -65 -4 -29 -87 -133 -143 -157 -138 -83 -48 -76 -87 -84 -42 -54 -56 -41 -48 -45 -35 -35 -26 -37
0 0 0 0 0 0 -13 -15 0 0 0 -3 0 0 -153 0 -142 -86 -137 -79 -50 -77 -76 -43 -82 -116 -135 -86 -102 -95 -38 -64 -67 -86 -78 -68 -85 -32 -59 -52 -38 -39 -22 -19
0 0 0 0 0 -22 -3 -5 -17 -21 -44 0 0 0 0 0 0 -67 -89 -92 -50 -66 -65 -69 -121 -72 -120 -53 -125 -79 -21 -69 -71 -63 -51 -48 -50 -47 -59 -54 -30 -27 -28 -31
0 0 0 0 0 0 0 0 -5 -1 -4 0 0 0 -88 0 0 -99 -109 -133 -131 -128 -147 -127 -83 -129 -129 0 0 -61 -40 -64 -47 -50 -37 -28 -23 -37 -30 -23 -17 -24 -9 -10
0 0 0 0 0 0 0 0 0 0 0 0 0 0 0 -53 0 -189 -76 -195 -125 -153 -191 -123 -79 -116 -94 -60 -115 -64 -60 -62 -37 -47 -39 -28 -19 -15 -24 -8 -9 -15 -9 -17
0 0 0 0 0 0 0 0 0 0 0 0 0 -62 -216 0 -300 -217 0 0 -78 -124 -197 -190 -100 -114 -153 -95 -112 -111 -62 -61 -81 -37 -39 -36 -19 -12 -11 -11 -6 -13 -12 -9
0 0 0 0 0 0 0 0 0 -12 -22 -27 -27 -80 -217 0 0 -38 -55 -42 -22 -34 -51 -42 -111 -81 -82 -103 -175 -128 -143 -211 -131 -19 -23 -28 -27 -17 -19 -17 -19 -26 -31 -24
0 0 0 0 0 0 0 -5 -36 -30 -16 -56 -77 -136 -135 -142 -93 0 -320 -159 -81 -111 -93 -117 -35 -17 0 -80 -96 -109 -164 -99 -93 -10 -16 -14 -14 -22 -30 -29 -32 -21 -13 -20
0 0 0 0 0 0 0 -37 -39 -32 -46 -63 -85 -109 -105 -109 -169 -127 -73 -111 -188 -210 -206 -158 -85 -17 -11 -66 -111 -156 -182 -122 -6 -19 -17 -25 -23 -21 -25 -22 -22 -17 -17 -23
0 0 0 0 0 0 -20 -37 0 0 -25 -73 -74 -96 -128 -134 -67 0 -174 -169 -200 -330 -306 -167 -84 -31 -39 -35 -84 -84 -81 -61 -48 -23 -21 -33 -32 -29 -23 -40 -44 -89 -111 -158
0 0 0 0 0 -6 -36 -28 -15 -9 -43 -58 -33 -78 -115 -107 0 -20 -219 -157 -177 -253 -312 -205 -66 -34 -30 -43 -66 -104 -62 -34 -45 -56 -37 -42 -45 -39 -80 -96 -93 -155 -195 -162
0 0 0 -21 -8 -2 -47 -25 -13 -12 -29 0 -50 -49 -71 0 -121 -126 -157 -190 -179 -189 -234 -172 -81 -34 -17 -50 -90 -138 -194 -332 -184 -37 -91 -25 -71 -93 -162 -197 -74 0 0 0
0 0 -1 0 -17 0 0 0 -18 0 0 0 -34 -46 -81 -76 -71 -134 -185 -180 -172 -188 -154 -162 -108 -72 -79 -45 -139 -117 -232 -328 -268 -11 -39 -17 -22 0 0 0 0 0 0 0
-58 -15 0 0 -12 -3 0 0 0 -4 -3 -8 -55 -70 -51 -49 -137 -109 -107 -108 -152 -174 -134 -127 -153 -88 -110 -66 -16 -45 -105 -142 -177 -148 -135 -90 -73 -19 0 0 0 0 0 0
-17 -146 0 -17 -15 -15 0 0 -21 -31 -41 -70 -132 -168 -154 -94 -47 -9 -78 -129 -30 -187 -180 -153 -172 -174 -202 -199 -148 -142 -167 -242 -228 0 0 0 0 0 0 0 0 0 0 0
-89 -31 -23 -33 -2 -4 -31 -36 -34 -33 -55 -82 -77 -133 0 0 -144 -147 -15 -79 -153 -188 -170 -144 -174 -212 -185 -203 -161 -223 -278 -262 -221 -179 -43 0 0 0 0 0 0 0 0 0
Wind_Speed
9 12 15 24 24 17 13 17 17 19 13 13 12 13 13 13 33 32 27 19 22 27 30 22 7 15 15 17 13 8 13 10 11 17 10 22 24 21 11 17 23 14 20 14
12 7 2 27 14 13 12 11 14 17 20 9 12 11 9 8 29 33 33 26 24 22 29 25 11 17 16 19 13 11 12 13 14 18 13 23 12 23 8 19 5 17 11 4
17 15 15 15 18 10 6 9 12 19 13 14 11 17 8 10 16 13 19 34 27 29 32 21 29 20 14 16 15 15 18 14 13 6 7 7 8 7 13 8 10 13 6 4
19 17 6 18 19 20 15 4 10 13 10 18 11 24 4 6 10 26 37 26 28 15 32 23 24 32 18 22 16 17 19 18 9 2 10 5 12 17 21 6 10 14 9 7
15 14 10 11 15 12 21 11 20 17 18 24 7 28 23 1 10 19 32 22 15 10 23 12 31 29 31 22 21 17 18 20 12 0 6 2 10 19 16 24 19 20 20 12
20 20 19 10 14 10 23 24 22 23 26 29 26 25 26 9 7 5 16 20 8 16 38 11 32 31 30 28 20 19 18 21 19 11 10 2 12 16 16 13 15 19 23 24
10 12 10 18 23 19 19 22 25 26 21 23 27 26 27 10 11 1 3 12 19 14 11 20 28 36 33 31 19 22 21 22 20 10 18 13 14 6 8 22 23 20 23 23
22 13 5 9 8 10 10 6 10 25 24 29 23 22 19 26 15 12 4 5 9 21 15 24 17 35 35 34 22 22 20 25 20 7 14 6 9 1 5 22 24 19 21 23
19 15 12 10 11 9 7 16 17 19 21 23 20 22 19 18 15 15 11 2 13 21 23 26 24 22 11 37 9 21 18 20 20 14 11 9 10 5 16 3 25 15 11 8
19 21 20 14 14 17 16 19 17 17 21 24 22 22 22 20 18 22 20 8 11 18 19 20 10 10 8 18 18 15 19 15 21 12 11 11 6 9 4 13 15 5 7 9
18 18 23 20 12 8 11 8 15 14 18 24 23 22 16 18 27 29 24 19 2 18 40 17 12 14 15 16 13 11 20 13 13 9 6 6 5 7 6 12 18 6 3 5
22 17 20 26 21 21 12 14 21 3 13 26 26 27 15 21 15 17 23 22 18 6 25 28 12 15 15 14 33 21 13 9 9 7 8 9 9 6 5 6 4 6 2 3
20 15 17 18 20 21 15 23 23 15 17 23 26 25 17 20 18 19 28 24 19 19 18 19 14 17 16 15 12 12 14 16 12 8 9 7 9 6 4 5 5 3 1 2
15 14 14 20 24 25 23 27 27 24 22 21 24 27 25 21 22 17 18 20 27 22 22 20 22 13 16 20 18 15 14 11 10 10 8 9 8 7 5 5 3 1 1 0
15 14 17 23 26 27 29 30 31 32 27 25 29 25 27 21 23 24 27 32 33 25 24 24 23 18 19 20 22 17 15 12 9 9 10 9 9 7 7 4 4 6 11 10
15 15 21 23 24 28 31 30 30 28 33 26 23 25 23 20 18 13 20 36 36 23 21 22 22 20 18 19 19 24 21 22 20 11 9 8 8 8 6 7 10 10 9 9
15 17 20 24 27 31 28 26 28 21 22 26 20 22 16 19 21 16 12 2 18 25 26 22 23 23 19 18 32 25 26 25 31 25 14 9 8 7 6 6 9 11 10 10
19 22 21 25 26 26 18 21 19 20 25 29 16 13 20 21 19 17 21 19 28 22 27 26 25 27 29 23 17 19 23 34 44 26 14 13 10 8 8 8 8 10 10 11
18 17 17 21 24 26 29 21 20 21 22 21 12 14 19 19 21 20 14 15 17 19 25 26 25 25 32 30 25 14 14 18 29 24 16 15 13 11 10 12 13 14 15 16
9 11 14 19 22 22 17 19 22 23 19 19 16 15 16 20 31 31 25 20 19 16 19 24 26 24 21 20 22 24 24 23 28 33 17 14 15 14 11 10 11 12 14 14
12 15 16 16 15 18 19 23 23 23 21 25 22 19 20 24 23 22 21 20 22 20 20 24 24 23 18 17 19 23 13 19 21 25 22 12 10 10 9 9 10 11 13 14
17 12 14 14 13 18 21 21 21 19 20 27 20 19 19 19 21 18 15 18 21 22 22 21 21 17 16 14 15 18 19 14 17 21 17 9 9 9 8 9 10 12 13 15
19 19 16 16 18 16 19 22 16 14 23 27 21 17 15 16 17 17 19 19 19 14 19 19 18 13 14 15 10 10 10 9 13 13 8 12 9 11 9 10 11 11 12 12
20 22 17 22 17 20 22 19 22 25 23 26 17 14 15 14 14 15 15 18 19 16 15 14 14 12 12 13 10 8 5 6 5 7 6 8 7 9 9 9 9 8 9 10
17 24 12 18 25 22 17 19 20 22 24 20 17 16 17 16 16 17 15 17 19 17 17 13 12 11 9 9 7 7 6 6 5 6 5 6 6 5 4 6 7 7 9 10
17 12 10 16 20 16 19 16 19 20 21 20 16 16 17 14 16 19 19 17 18 17 15 13 11 8 7 6 7 8 7 6 6 6 6 6 9 6 15 8 7 9 11 12
Wind_Direction
336 318 295 264 283 308 325 316 315 317 352 5 27 4 107 134 223 216 223 250 235 207 181 154 82 110 104 109 91 69 97 82 82 104 48 181 127 170 240 79 178 211 95 75
305 9 257 267 313 336 340 341 326 315 314 349 4 19 85 84 238 231 210 236 230 234 196 208 116 125 121 124 101 94 98 99 95 112 93 177 236 137 179 192 0 202 57 350
169 194 162 209 309 336 336 330 329 323 186 150 358 327 24 351 139 190 180 200 184 201 196 241 202 181 118 120 118 115 124 111 106 281 63 299 33 281 233 264 255 232 48 308
193 277 344 311 302 303 316 328 334 315 319 288 143 306 70 112 150 207 229 173 177 161 186 228 224 193 139 146 127 127 132 129 114 328 267 66 257 230 196 258 255 229 234 275
148 334 26 171 185 158 305 344 301 301 301 295 315 285 306 21 317 182 192 185 175 222 166 170 198 219 209 147 144 134 136 141 127 156 275 328 98 229 242 168 125 115 203 78
221 290 315 147 156 189 297 298 299 298 293 286 306 301 283 308 175 146 172 182 199 176 218 219 214 217 213 172 147 142 141 147 143 133 247 261 253 243 243 91 99 116 153 192
167 180 16 317 275 310 311 301 291 285 287 289 308 298 284 281 317 280 252 179 175 206 216 170 182 217 199 180 150 153 151 150 145 138 142 133 166 291 197 143 150 139 156 168
295 322 44 41 13 154 353 48 344 286 285 289 304 290 303 291 292 322 346 173 178 174 182 169 166 195 203 191 160 155 150 160 148 133 142 128 127 347 78 138 166 130 161 168
325 354 70 46 13 30 48 350 332 324 301 291 299 288 311 334 317 309 328 301 165 170 172 175 178 175 192 206 159 160 152 153 151 145 142 142 137 129 136 326 203 256 311 27
309 301 262 3 354 322 318 318 336 330 290 283 291 286 284 286 292 299 291 304 144 167 174 177 209 196 202 185 172 252 162 153 158 149 151 153 153 146 160 278 273 340 49 65
329 337 292 311 8 64 7 1 340 345 294 278 281 292 324 310 276 266 277 288 271 174 218 242 210 192 179 176 187 176 166 164 159 158 180 172 203 172 255 272 269 299 11 12
318 338 316 293 308 329 359 342 312 41 328 273 270 283 305 281 324 283 253 240 280 307 183 254 214 202 194 187 178 172 180 193 172 181 172 172 167 177 211 260 273 292 307 10
328 335 333 324 328 340 333 306 300 1 316 286 267 284 303 284 305 273 239 238 280 285 293 267 261 196 199 204 191 205 190 171 169 180 176 185 167 173 194 178 171 280 296 323
330 327 329 319 318 319 317 298 289 313 307 300 291 292 294 299 295 307 282 300 276 285 286 281 259 212 227 232 229 203 199 196 176 167 184 183 182 182 180 171 190 230 274 342
336 322 318 314 310 306 299 293 282 279 299 304 291 294 289 301 298 298 282 269 275 281 282 283 267 249 240 237 240 204 199 220 206 179 177 190 191 188 177 250 263 287 293 299
342 318 313 309 312 307 301 297 295 300 288 304 302 289 299 306 307 313 287 284 258 289 302 281 265 255 245 237 219 238 239 248 249 206 193 190 187 185 225 262 279 287 294 302
326 323 317 303 306 300 303 295 305 317 321 316 321 298 298 300 288 313 302 20 303 278 283 294 277 257 252 243 234 241 250 261 245 245 246 227 206 200 224 248 273 282 290 301
314 303 309 305 307 303 318 330 334 326 324 323 328 323 296 297 297 314 309 312 280 297 275 288 282 260 248 244 250 248 256 254 245 250 237 244 242 236 249 259 269 282 291 296
310 315 309 309 305 301 298 321 326 323 327 347 350 330 317 321 317 318 336 319 325 308 286 278 278 272 254 252 258 249 240 201 201 243 227 236 241 243 253 267 275 280 286 295
322 332 317 313 305 306 319 331 321 312 311 346 344 337 328 320 303 302 305 311 316 330 317 290 265 270 275 266 259 263 263 260 256 251 227 230 248 258 263 273 286 296 303 308
311 314 309 313 313 314 321 326 320 308 307 318 333 333 327 318 321 329 314 302 303 318 310 288 278 280 282 281 271 266 284 281 273 287 237 231 249 259 272 285 300 310 315 320
303 312 316 320 321 306 328 321 322 326 331 319 333 328 327 326 326 337 324 304 297 297 293 288 280 293 294 296 288 284 280 294 313 292 308 270 262 271 286 296 306 311 317 316
300 301 318 327 318 327 328 323 346 359 329 324 328 329 335 334 325 322 320 296 289 307 287 278 277 291 291 288 306 303 290 315 332 351 271 286 292 284 295 300 306 312 319 331
299 293 317 309 316 319 318 333 336 336 338 330 344 343 343 343 332 330 329 294 290 287 287 283 288 290 290 294 307 312 323 351 11 355 349 355 351 285 288 302 308 327 325 340
305 285 329 307 303 315 335 337 343 342 347 356 351 347 343 337 330 321 326 309 292 280 270 278 282 291 296 312 313 327 348 8 353 315 335 332 357 349 346 341 324 328 327 348
274 294 322 316 327 336 332 349 351 356 359 353 355 345 334 338 329 322 313 296 285 274 271 272 277 282 292 330 320 330 352 13 38 31 13 29 49 21 76 33 328 335 345 350